Theta_e
314 312 311 311 311 310 310 309 307 306 306 305 305 305 304 303 303 304 308 316 320 321 320 318 318 316 316 316 315 314 314 313 313 312 312 312 311 311 311 311 310 310 310
315 313 311 310 309 308 309 307 305 303 303 303 303 303 302 300 300 301 302 308 318 320 318 318 317 316 315 315 314 314 313 312 311 311 310 310 310 309 309 309 308 308 308
315 314 312 311 309 310 309 307 304 301 299 300 300 301 300 298 298 298 298 300 302 311 317 315 315 315 314 314 313 312 312 311 310 310 309 309 308 308 308 307 307 307 307
318 316 313 313 313 310 308 305 302 300 298 298 296 297 296 295 295 296 297 297 297 299 306 314 313 313 313 312 312 311 310 309 309 308 307 307 307 306 306 306 305 305 305
321 318 316 315 314 310 308 305 300 299 296 293 293 292 291 293 292 294 295 296 296 295 295 304 307 312 311 311 311 310 309 308 307 306 305 305 305 304 304 304 304 304 304
324 320 318 316 314 309 306 304 300 296 295 293 292 289 289 289 289 291 292 294 293 292 292 293 294 298 310 310 310 309 308 307 306 305 304 303 303 303 302 302 303 302 302
326 322 319 317 314 309 306 303 298 294 292 292 289 288 288 288 286 288 288 289 290 289 290 290 291 292 296 307 308 309 308 307 305 303 303 302 301 301 301 301 301 301 301
328 325 321 317 315 310 305 301 299 295 292 292 287 288 284 286 285 287 286 286 286 286 287 288 288 290 290 290 294 307 307 306 305 303 301 300 299 299 299 299 299 300 300
329 326 323 319 316 312 305 302 298 297 292 291 291 291 284 285 284 284 285 285 283 283 284 285 286 288 288 288 295 298 303 304 303 302 300 299 298 297 297 298 299 299 300
328 326 324 320 316 313 308 303 301 299 297 291 291 293 291 288 285 280 284 284 284 283 282 283 283 286 286 286 290 292 298 300 300 299 298 297 296 296 297 297 298 299 299
316 324 323 319 316 314 311 305 301 300 298 296 294 294 292 288 287 285 281 282 281 283 283 284 284 285 286 286 285 289 296 297 296 296 295 294 295 295 296 296 298 299 299
313 313 316 319 317 315 312 307 304 301 300 300 296 298 295 293 288 285 282 282 282 283 284 284 282 284 285 285 286 289 294 295 295 294 294 293 293 294 295 296 297 298 299
305 311 311 313 315 315 313 309 305 302 302 300 299 298 298 299 292 291 286 283 282 283 283 284 284 284 285 285 285 289 291 293 294 294 293 293 293 294 294 295 296 297 298
307 305 307 311 314 314 313 309 306 303 302 301 301 299 300 299 295 290 288 284 281 281 282 283 284 284 284 284 285 290 286 291 293 293 293 293 293 294 294 294 295 296 296
304 301 304 305 307 311 311 310 306 303 303 301 300 299 299 299 295 291 289 289 290 280 280 282 281 284 284 283 284 286 284 288 291 292 292 292 292 293 293 294 294 295 296
301 300 301 303 305 307 308 308 307 305 302 301 300 299 298 299 295 293 291 289 288 289 285 284 282 283 284 283 284 284 284 285 288 291 292 291 291 292 293 293 293 294 294
300 300 301 303 303 304 305 305 305 304 300 300 299 298 297 298 295 294 292 289 287 287 287 280 282 283 283 283 282 284 283 283 283 288 289 290 290 291 291 292 292 292 292
297 299 297 299 300 301 302 302 302 302 299 297 297 296 296 297 295 293 292 290 288 285 283 279 279 280 281 282 282 282 281 281 281 284 287 289 290 290 291 291 291 291 290
295 293 294 295 296 297 298 299 300 300 299 298 298 296 297 295 291 291 289 289 287 284 282 281 278 279 279 281 279 280 280 280 280 283 287 288 289 290 290 290 289 289 288
294 291 292 292 292 294 294 294 294 296 296 296 296 295 294 292 291 288 286 285 284 282 282 280 279 278 278 279 280 279 278 280 279 281 283 284 286 286 287 288 288 286 285
291 290 289 289 288 288 288 290 290 292 291 292 289 289 290 288 289 287 286 285 284 283 282 281 278 277 277 278 278 279 278 279 279 280 280 280 280 280 281 283 283 284 284
288 287 286 287 286 287 290 292 291 289 288 289 288 286 285 285 287 288 289 288 286 284 283 281 279 278 278 279 279 279 278 277 276 280 279 278 279 279 280 279 283 284 285
286 285 285 284 284 284 289 291 291 287 287 287 287 285 283 284 284 285 287 287 288 288 286 282 280 280 279 280 280 279 279 279 278 279 278 276 279 278 279 280 283 283 283
283 283 283 282 282 283 288 290 290 287 286 285 285 284 284 283 284 284 284 283 283 284 284 283 283 282 283 282 282 281 280 280 279 280 279 274 277 276 278 278 281 280 279
278 278 280 281 282 283 287 288 289 285 284 283 283 283 283 283 285 286 283 282 282 282 286 285 285 286 287 285 284 281 277 276 276 277 279 276 274 273 274 274 275 276 275
283 282 283 283 283 284 286 288 288 284 282 281 282 283 283 284 286 287 283 281 280 281 282 283 283 285 285 284 286 282 280 277 277 274 275 274 272 271 269 271 271 270 269
Wind_Speed
5 4 3 3 4 4 4 4 5 5 5 6 5 7 5 5 4 3 3 8 12 13 14 11 13 13 14 14 14 15 15 15 16 16 16 16 16 17 17 17 17 17 18
7 6 4 4 3 3 3 4 6 5 4 5 6 6 5 4 5 5 4 5 8 11 11 12 12 12 12 13 13 14 14 14 14 15 14 14 15 15 15 15 15 15 15
10 9 7 6 5 4 6 4 4 5 5 4 6 5 5 5 5 5 4 5 4 9 10 11 11 11 11 12 12 12 12 13 13 13 12 12 12 12 12 12 12 13 13
13 11 9 8 7 6 5 5 4 4 5 6 5 3 3 4 5 5 4 4 4 3 6 8 10 11 11 11 11 12 11 11 11 11 10 10 10 10 10 10 10 10 11
15 12 10 9 10 7 7 7 5 6 5 4 5 3 3 3 3 3 4 5 5 4 3 6 7 9 10 12 12 11 11 10 10 9 9 8 7 7 7 7 8 8 9
15 12 10 10 10 8 7 7 8 3 4 7 6 4 3 2 1 1 3 2 4 5 4 4 3 3 8 12 12 12 11 10 9 8 7 6 5 4 5 5 6 7 8
15 14 10 11 11 12 12 11 7 9 4 5 5 2 2 0 2 3 3 3 4 4 4 4 2 2 1 8 13 13 12 11 9 8 6 4 3 2 3 4 5 6 7
16 14 14 12 14 10 11 11 12 6 3 9 4 3 2 2 4 5 4 4 6 3 5 5 5 4 3 1 5 13 12 12 11 9 7 5 3 1 1 2 4 6 7
15 15 14 13 14 12 12 15 13 16 9 10 9 5 4 7 3 3 7 6 6 5 5 5 6 5 5 4 4 6 11 12 11 10 8 6 4 3 3 4 5 7 9
13 15 14 13 14 12 13 13 13 14 11 12 5 9 2 4 5 3 3 7 6 9 7 5 6 6 6 4 8 9 11 13 12 11 9 7 5 5 5 6 7 8 9
5 9 13 14 13 11 13 14 15 15 13 13 12 7 3 3 3 3 4 5 5 8 8 9 8 8 9 8 6 9 16 16 14 12 10 8 7 7 6 7 8 9 10
7 6 7 12 12 12 14 15 17 19 17 14 13 12 9 9 7 5 3 4 9 8 10 8 8 8 8 8 11 16 18 17 16 14 12 10 9 8 8 8 9 10 11
5 10 8 7 9 13 13 12 14 15 17 16 17 15 11 11 4 8 4 4 3 3 5 8 9 9 8 6 8 15 18 18 17 15 13 12 11 10 9 9 10 11 12
8 8 11 11 11 10 12 12 11 13 15 14 18 15 12 11 7 4 8 7 3 4 4 3 9 9 9 9 11 19 9 19 18 17 15 13 12 12 10 10 11 11 13
6 7 10 11 12 14 13 14 11 13 13 14 16 15 13 10 7 7 7 6 7 7 11 9 6 12 9 8 12 10 8 15 18 17 15 14 11 14 11 11 12 13 15
7 8 10 10 11 13 13 14 13 13 14 12 12 14 14 12 9 9 10 10 8 7 6 10 9 5 12 8 11 11 10 15 16 16 16 15 12 15 12 12 13 14 15
8 10 10 12 12 13 13 13 15 13 14 14 12 13 15 15 10 10 9 10 10 8 8 1 2 3 10 12 10 9 8 7 5 15 15 14 14 14 12 13 14 15 16
7 10 10 12 12 12 12 13 15 13 14 14 14 14 15 10 14 11 10 13 11 10 5 4 3 3 5 12 9 10 7 5 5 12 15 15 16 14 13 14 14 16 16
7 7 8 11 11 11 11 12 14 14 13 14 14 15 16 13 12 9 10 9 6 5 3 3 3 2 2 7 5 4 6 4 4 11 13 15 15 14 14 14 14 15 16
8 8 9 10 10 10 10 10 10 12 11 11 11 12 13 12 14 11 9 9 9 7 4 6 3 3 3 1 4 6 4 2 5 4 8 10 11 9 12 14 14 15 15
8 7 7 9 7 8 7 9 9 11 9 9 7 8 9 11 13 14 9 10 11 9 8 5 3 2 3 3 8 4 4 3 3 3 2 3 2 2 4 8 10 13 13
7 6 7 8 8 7 13 16 12 9 8 9 9 7 5 7 12 18 18 19 17 14 10 5 6 7 4 4 3 3 4 3 3 2 3 2 3 3 4 3 11 12 13
5 7 7 6 8 6 13 15 16 8 8 9 8 7 5 5 8 9 14 18 17 15 13 8 8 4 4 6 6 5 4 3 3 2 3 5 4 5 4 4 10 11 11
6 5 6 6 5 5 13 14 13 8 7 7 8 9 9 9 10 11 10 9 8 8 9 6 6 6 4 5 4 4 5 4 2 3 4 3 2 3 2 3 8 4 5
2 3 3 5 6 6 11 12 10 6 6 5 5 7 8 9 15 19 11 10 9 7 10 13 11 12 11 14 11 6 4 4 3 4 5 3 1 1 1 1 2 4 7
4 3 3 3 5 7 11 14 12 5 5 5 5 7 13 11 19 20 10 11 11 9 9 8 8 11 11 10 14 7 5 5 3 2 3 4 3 1 1 0 1 1 4
Wind_Direction
153 137 147 153 159 150 143 131 121 115 107 100 87 100 92 87 90 69 62 89 117 131 123 121 119 116 113 108 105 104 103 101 98 95 92 88 85 81 77 74 70 66 62
164 160 161 168 171 158 145 138 139 128 116 120 111 109 106 90 73 59 56 67 75 136 133 138 130 125 120 116 114 112 109 105 102 99 95 92 88 84 81 77 73 69 63
176 171 170 177 177 163 140 124 128 112 110 104 110 114 117 105 85 72 61 72 49 37 153 149 142 136 131 125 121 118 115 112 109 106 101 96 92 88 84 79 74 67 63
179 174 177 186 176 164 150 143 151 131 130 137 128 106 103 93 101 96 79 90 76 55 39 139 149 147 147 139 133 129 126 122 118 114 110 102 96 90 84 78 70 61 55
184 181 182 182 173 169 169 157 152 152 141 108 115 90 87 114 132 124 117 109 109 103 85 60 41 159 166 155 149 144 140 136 131 128 119 110 101 93 83 72 61 50 42
188 186 184 177 170 170 167 165 158 126 142 140 125 95 75 61 75 182 156 140 138 130 121 106 55 3 171 167 161 159 154 149 145 139 132 124 110 96 76 57 47 34 25
190 188 186 178 180 178 181 169 142 143 138 135 105 68 87 307 226 232 206 189 199 179 150 141 140 92 115 176 177 173 167 165 162 160 153 147 131 105 67 37 20 10 4
192 191 185 186 186 179 175 171 167 161 130 181 145 96 164 279 242 219 218 208 210 205 191 183 172 161 145 106 263 185 181 177 176 176 174 174 179 184 358 342 342 342 345
195 192 194 187 185 186 184 180 179 174 173 197 193 152 147 221 131 188 221 215 202 201 215 201 195 190 175 188 183 195 188 189 187 189 191 197 211 241 275 299 315 326 331
200 196 193 189 188 189 189 192 186 188 173 193 192 241 292 142 184 203 232 214 210 210 203 211 199 194 189 193 185 189 202 196 195 199 202 211 228 253 276 293 308 319 325
211 202 189 181 189 193 196 190 188 197 197 183 209 185 162 234 114 134 186 211 212 219 213 200 201 199 193 191 197 203 200 200 200 205 210 219 234 255 275 292 303 312 320
206 205 197 190 193 198 197 195 196 200 198 208 197 212 200 187 184 174 168 195 216 216 209 204 206 198 202 200 199 198 204 205 205 207 214 224 237 252 269 288 300 307 315
206 213 197 200 202 204 205 202 203 208 211 205 206 211 207 218 173 184 135 149 187 184 205 214 213 201 196 200 213 197 208 209 211 211 216 226 238 249 259 279 293 304 313
211 194 203 215 217 214 210 202 205 210 212 219 216 222 219 219 200 173 170 148 162 191 221 199 204 208 195 190 211 208 208 212 216 216 218 226 240 251 257 271 286 299 305
205 194 203 210 220 227 224 218 213 210 214 217 220 216 225 214 204 186 176 170 194 182 217 204 174 202 197 188 204 205 197 214 219 223 224 230 243 250 257 268 281 295 302
193 193 201 208 219 225 226 227 224 218 215 218 219 217 218 220 204 201 195 195 204 200 215 194 201 175 187 194 201 198 199 205 219 227 230 235 248 249 258 272 283 292 298
194 205 209 215 217 221 220 227 231 221 215 218 217 218 218 217 211 211 201 196 198 193 216 135 141 146 174 195 193 194 193 195 203 227 234 238 250 257 265 272 283 290 298
200 206 199 216 221 219 217 223 230 225 218 215 215 220 221 217 219 207 205 205 202 187 165 140 144 133 171 200 189 183 185 195 192 226 236 239 250 259 266 274 284 292 299
216 209 203 209 217 217 215 220 227 229 224 222 220 218 221 209 210 204 204 207 201 174 96 120 112 112 153 176 155 159 179 181 196 223 237 245 253 261 268 281 291 297 303
220 213 209 209 213 216 217 220 224 232 226 227 226 220 219 209 215 197 186 172 147 140 130 137 166 138 135 142 154 170 183 178 209 199 232 237 249 267 275 278 291 308 305
229 216 204 218 207 201 212 214 219 228 224 227 219 214 212 205 202 185 177 175 166 162 161 159 147 132 145 145 189 164 177 143 222 204 211 226 235 248 262 275 293 293 296
235 220 220 219 214 218 215 215 212 216 217 223 222 215 191 184 186 190 194 182 170 168 169 154 171 190 178 127 122 136 135 156 209 139 165 259 173 227 243 241 271 284 304
227 218 221 209 223 225 228 225 221 212 209 212 209 188 175 176 170 174 184 175 171 172 169 167 171 159 136 163 140 151 162 134 175 157 145 246 192 234 219 243 275 292 312
225 217 219 215 211 228 236 238 229 219 218 206 194 187 185 171 175 167 165 167 155 167 174 171 154 161 143 129 144 152 150 167 158 183 168 237 195 211 204 227 277 304 27
225 217 229 215 215 230 230 229 222 198 213 200 180 176 172 176 182 174 164 154 151 144 153 152 166 166 169 176 151 133 166 162 197 202 178 184 157 222 311 349 69 75 35
266 196 216 232 241 251 223 215 210 175 192 177 164 173 179 182 187 176 164 156 162 168 153 158 163 171 177 175 184 189 174 195 163 186 182 175 152 145 300 227 215 93 63